TimeEDT,TemperatureF,Dew PointF,Humidity,Sea Level PressureIn,VisibilityMPH,Wind Direction,Wind SpeedMPH,Gust SpeedMPH,PrecipitationIn,Events,Conditions,WindDirDegrees,DateUTC
12:54 AM,70.0,68.0,93,29.94,10.0,Calm,Calm,-,N/A,,Overcast,0,2013-07-28 04:54:00
1:01 AM,69.8,68.0,94,29.97,10.0,Calm,Calm,-,N/A,,Overcast,0,2013-07-28 05:01:00
1:39 AM,69.8,68.0,94,29.96,10.0,Calm,Calm,-,N/A,,Overcast,0,2013-07-28 05:39:00
1:54 AM,70.0,68.0,93,29.93,10.0,Calm,Calm,-,N/A,,Overcast,0,2013-07-28 05:54:00
2:54 AM,70.0,68.0,93,29.92,10.0,SSW,6.9,-,N/A,,Overcast,210,2013-07-28 06:54:00
3:54 AM,70.0,68.0,93,29.93,10.0,SW,4.6,-,N/A,,Overcast,220,2013-07-28 07:54:00
4:54 AM,70.0,68.0,93,29.94,10.0,SSW,5.8,-,N/A,,Overcast,210,2013-07-28 08:54:00
5:36 AM,69.8,68.0,94,29.96,10.0,SW,6.9,-,N/A,,Overcast,220,2013-07-28 09:36:00
5:54 AM,69.1,68.0,96,29.94,9.0,SSW,6.9,-,N/A,,Overcast,200,2013-07-28 09:54:00
6:33 AM,69.8,68.0,94,29.97,8.0,WSW,6.9,-,N/A,,Overcast,240,2013-07-28 10:33:00
6:54 AM,70.0,68.0,93,29.95,7.0,SW,5.8,-,N/A,,Overcast,220,2013-07-28 10:54:00
7:54 AM,70.0,68.0,93,29.95,7.0,SSW,6.9,-,N/A,,Mostly Cloudy,210,2013-07-28 11:54:00
8:01 AM,71.6,68.0,88,29.98,7.0,SW,6.9,-,N/A,,Mostly Cloudy,220,2013-07-28 12:01:00
8:54 AM,72.0,69.1,91,29.95,7.0,WSW,6.9,-,N/A,,Mostly Cloudy,240,2013-07-28 12:54:00
9:20 AM,73.4,69.8,88,29.98,7.0,WSW,11.5,-,N/A,,Mostly Cloudy,240,2013-07-28 13:20:00
9:54 AM,73.9,68.0,82,29.95,9.0,West,6.9,-,N/A,,Mostly Cloudy,270,2013-07-28 13:54:00
10:20 AM,75.2,69.8,83,29.98,9.0,West,8.1,-,N/A,,Overcast,260,2013-07-28 14:20:00
10:54 AM,77.0,68.0,74,29.96,9.0,West,10.4,-,N/A,,Mostly Cloudy,260,2013-07-28 14:54:00
11:54 AM,80.1,66.9,64,29.96,10.0,West,8.1,-,N/A,,Mostly Cloudy,280,2013-07-28 15:54:00
12:54 PM,81.0,66.0,60,29.96,10.0,SSW,6.9,-,N/A,,Mostly Cloudy,210,2013-07-28 16:54:00
1:54 PM,82.0,66.9,60,29.95,10.0,SW,9.2,-,N/A,,Mostly Cloudy,230,2013-07-28 17:54:00
2:54 PM,82.9,66.0,56,29.93,10.0,WSW,4.6,-,N/A,,Mostly Cloudy,240,2013-07-28 18:54:00
3:54 PM,81.0,66.9,62,29.93,10.0,West,5.8,-,N/A,,Mostly Cloudy,270,2013-07-28 19:54:00
4:54 PM,82.9,68.0,60,29.92,10.0,Variable,5.8,-,0.00,,Mostly Cloudy,0,2013-07-28 20:54:00
5:54 PM,82.9,66.9,58,29.92,10.0,West,6.9,-,N/A,,Scattered Clouds,260,2013-07-28 21:54:00
6:54 PM,80.1,66.9,64,29.93,10.0,SW,6.9,-,N/A,,Mostly Cloudy,230,2013-07-28 22:54:00
7:54 PM,75.9,71.1,85,29.96,4.0,WSW,13.8,-,0.01,Rain,Light Rain,240,2013-07-28 23:54:00
8:04 PM,73.4,69.8,88,29.99,3.0,SSW,12.7,-,0.01,Rain-Thunderstorm,Light Thunderstorms and Rain,200,2013-07-29 00:04:00
8:34 PM,73.4,66.2,78,29.99,10.0,South,4.6,-,0.01,,Mostly Cloudy,190,2013-07-29 00:34:00
8:54 PM,73.0,66.9,81,29.96,10.0,Calm,Calm,-,0.01,,Partly Cloudy,0,2013-07-29 00:54:00
9:54 PM,73.0,68.0,84,29.98,10.0,Calm,Calm,-,N/A,,Partly Cloudy,0,2013-07-29 01:54:00
10:54 PM,72.0,68.0,87,29.99,10.0,South,9.2,-,N/A,,Partly Cloudy,180,2013-07-29 02:54:00
11:54 PM,70.0,66.9,90,29.99,10.0,SSW,5.8,-,N/A,,Partly Cloudy,200,2013-07-29 03:54:00